Torna al catalogo

STARLINK-4279

AttivoComunicazioniVLEO
NORAD 53018·PAYLOAD·🇺🇸 United States

Lanciato Jul 7, 2022 da Cape Canaveral Space Force Station

Loading…

Prossimi Passaggi (prossime 24 ore)

TLE

AggiornatoSource: CelesTrak SupGP

Epoca: Sep 14, 2026, 14:24 UTC

1 53018C 22076AJ  26257.60048611  .00662100  00000+0  22410-1 0  2573
2 53018  53.1588 281.8444 0001207  83.8252   4.1040 15.29724979    13

Traccia STARLINK-4279 in tempo reale con AllMySat

Download on the App Store